TimeCST,TemperatureF,Dew PointF,Humidity,Sea Level PressureIn,VisibilityMPH,Wind Direction,Wind SpeedMPH,Gust SpeedMPH,PrecipitationIn,Events,Conditions,WindDirDegrees,DateUTC
12:14 AM,-4.0,-9.4,78,29.91,10.0,NW,16.1,-,N/A,,Overcast,320,2013-01-31 06:14:00
12:34 AM,-4.0,-11.2,71,29.91,10.0,NW,19.6,24.2,N/A,,Overcast,320,2013-01-31 06:34:00
12:53 AM,-4.0,-11.2,71,29.91,7.0,NW,18.4,-,N/A,,Overcast,320,2013-01-31 06:53:00
1:14 AM,-4.0,-11.2,71,29.92,7.0,NW,18.4,-,N/A,,Overcast,320,2013-01-31 07:14:00
1:34 AM,-4.0,-11.2,71,29.92,7.0,NW,18.4,23.0,N/A,,Overcast,320,2013-01-31 07:34:00
1:53 AM,-5.8,-11.2,77,29.93,10.0,NW,16.1,23.0,N/A,,Mostly Cloudy,320,2013-01-31 07:53:00
2:14 AM,-5.8,-13.0,71,29.94,10.0,NW,13.8,23.0,N/A,,Scattered Clouds,320,2013-01-31 08:14:00
2:34 AM,-5.8,-13.0,71,29.95,10.0,NW,12.7,-,N/A,,Scattered Clouds,310,2013-01-31 08:34:00
2:54 AM,-5.8,-13.0,71,29.96,10.0,NW,15.0,20.7,N/A,,Clear,310,2013-01-31 08:54:00
3:14 AM,-5.8,-13.0,71,29.95,10.0,NW,16.1,21.9,N/A,,Clear,320,2013-01-31 09:14:00
3:34 AM,-5.8,-14.8,65,29.96,10.0,NW,19.6,-,N/A,,Clear,320,2013-01-31 09:34:00
3:54 AM,-7.6,-14.8,71,29.97,10.0,NW,18.4,23.0,N/A,,Clear,320,2013-01-31 09:54:00
4:14 AM,-7.6,-14.8,71,29.98,10.0,NW,18.4,25.3,N/A,,Clear,320,2013-01-31 10:14:00
4:33 AM,-7.6,-14.8,71,29.99,10.0,NW,17.3,26.5,N/A,,Clear,320,2013-01-31 10:33:00
4:54 AM,-7.6,-16.6,65,30.00,10.0,NW,13.8,24.2,N/A,,Clear,310,2013-01-31 10:54:00
5:14 AM,-9.4,-16.6,71,30.01,10.0,NW,15.0,20.7,N/A,,Clear,310,2013-01-31 11:14:00
5:33 AM,-9.4,-16.6,71,30.01,10.0,NW,19.6,23.0,N/A,,Clear,320,2013-01-31 11:33:00
5:54 AM,-9.4,-16.6,71,30.02,10.0,NW,17.3,24.2,N/A,,Clear,320,2013-01-31 11:54:00
6:14 AM,-9.4,-16.6,71,30.04,10.0,NW,16.1,23.0,N/A,,Clear,310,2013-01-31 12:14:00
6:33 AM,-9.4,-16.6,71,30.05,10.0,NW,16.1,19.6,N/A,,Clear,320,2013-01-31 12:33:00
6:54 AM,-9.4,-16.6,71,30.06,10.0,NW,18.4,24.2,N/A,,Clear,320,2013-01-31 12:54:00
7:13 AM,-9.4,-18.4,65,30.08,10.0,NW,18.4,26.5,N/A,,Clear,320,2013-01-31 13:13:00
7:34 AM,-9.4,-18.4,65,30.08,10.0,NW,18.4,25.3,N/A,,Scattered Clouds,320,2013-01-31 13:34:00
7:54 AM,-9.4,-18.4,65,30.10,10.0,NW,21.9,32.2,N/A,,Scattered Clouds,320,2013-01-31 13:54:00
8:13 AM,-11.2,-18.4,70,30.11,10.0,NW,23.0,29.9,N/A,,Clear,320,2013-01-31 14:13:00
8:33 AM,-9.4,-18.4,65,30.12,7.0,NW,21.9,29.9,N/A,,Scattered Clouds,320,2013-01-31 14:33:00
8:54 AM,-9.4,-18.4,65,30.13,3.0,NW,25.3,32.2,N/A,,Haze,310,2013-01-31 14:54:00
9:18 AM,-9.4,-16.6,71,30.14,1.2,NW,25.3,35.7,N/A,,Haze,310,2013-01-31 15:18:00
9:34 AM,-9.4,-16.6,71,30.15,1.2,NW,21.9,28.8,N/A,,Haze,320,2013-01-31 15:34:00
9:54 AM,-9.4,-14.8,77,30.17,1.0,NW,25.3,29.9,N/A,,Haze,320,2013-01-31 15:54:00
10:14 AM,-7.6,-14.8,71,30.17,1.2,NW,25.3,33.4,N/A,,Haze,320,2013-01-31 16:14:00
10:34 AM,-7.6,-16.6,65,30.19,4.0,NW,21.9,28.8,N/A,,Haze,320,2013-01-31 16:34:00
11:14 AM,-7.6,-16.6,65,30.20,5.0,NW,24.2,32.2,N/A,,Haze,320,2013-01-31 17:14:00
11:34 AM,-7.6,-16.6,65,30.21,10.0,NW,23.0,28.8,N/A,,Overcast,320,2013-01-31 17:34:00
11:54 AM,-7.6,-16.6,65,30.21,10.0,NW,20.7,33.4,N/A,,Overcast,320,2013-01-31 17:54:00
12:14 PM,-7.6,-16.6,65,30.23,10.0,NW,24.2,28.8,N/A,,Mostly Cloudy,320,2013-01-31 18:14:00
12:34 PM,-7.6,-14.8,71,30.23,10.0,NW,23.0,31.1,N/A,,Mostly Cloudy,320,2013-01-31 18:34:00
12:53 PM,-5.8,-14.8,65,30.23,10.0,NW,25.3,32.2,N/A,,Mostly Cloudy,320,2013-01-31 18:53:00
1:14 PM,-5.8,-14.8,65,30.24,7.0,NW,23.0,31.1,N/A,,Mostly Cloudy,320,2013-01-31 19:14:00
1:34 PM,-5.8,-13.0,71,30.24,5.0,NW,21.9,28.8,N/A,,Haze,320,2013-01-31 19:34:00
1:53 PM,-5.8,-13.0,71,30.25,7.0,NW,19.6,-,N/A,,Mostly Cloudy,310,2013-01-31 19:53:00
2:14 PM,-5.8,-14.8,65,30.25,10.0,NW,20.7,28.8,N/A,,Scattered Clouds,310,2013-01-31 20:14:00
2:34 PM,-5.8,-13.0,71,30.25,10.0,NW,20.7,32.2,N/A,,Scattered Clouds,310,2013-01-31 20:34:00
2:53 PM,-5.8,-14.8,65,30.26,10.0,NW,21.9,28.8,N/A,,Clear,310,2013-01-31 20:53:00
3:14 PM,-5.8,-14.8,65,30.26,10.0,NW,19.6,27.6,N/A,,Clear,310,2013-01-31 21:14:00
3:34 PM,-5.8,-14.8,65,30.27,10.0,NW,20.7,27.6,N/A,,Clear,310,2013-01-31 21:34:00
3:53 PM,-5.8,-14.8,65,30.28,10.0,NW,17.3,25.3,N/A,,Clear,310,2013-01-31 21:53:00
4:14 PM,-5.8,-14.8,65,30.28,10.0,NW,16.1,25.3,N/A,,Clear,310,2013-01-31 22:14:00
4:34 PM,-5.8,-14.8,65,30.29,10.0,WNW,17.3,28.8,N/A,,Clear,300,2013-01-31 22:34:00
4:53 PM,-5.8,-14.8,65,30.29,10.0,NW,18.4,23.0,N/A,,Clear,310,2013-01-31 22:53:00
5:14 PM,-5.8,-16.6,60,30.29,10.0,NW,17.3,24.2,N/A,,Clear,310,2013-01-31 23:14:00
5:34 PM,-5.8,-14.8,65,30.29,10.0,NW,13.8,21.9,N/A,,Clear,310,2013-01-31 23:34:00
6:14 PM,-7.6,-16.6,65,30.30,10.0,WNW,16.1,-,N/A,,Clear,300,2013-02-01 00:14:00
6:33 PM,-7.6,-16.6,65,30.30,10.0,NW,15.0,21.9,N/A,,Clear,310,2013-02-01 00:33:00
6:54 PM,-7.6,-16.6,65,30.31,10.0,WNW,11.5,-,N/A,,Clear,300,2013-02-01 00:54:00
7:13 PM,-7.6,-16.6,65,30.31,10.0,WNW,13.8,-,N/A,,Clear,300,2013-02-01 01:13:00
7:34 PM,-7.6,-16.6,65,30.31,10.0,WNW,11.5,-,N/A,,Clear,300,2013-02-01 01:34:00
7:53 PM,-9.4,-16.6,71,30.32,10.0,WNW,10.4,-,N/A,,Clear,300,2013-02-01 01:53:00
8:14 PM,-9.4,-16.6,71,30.32,10.0,WNW,9.2,-,N/A,,Clear,290,2013-02-01 02:14:00
8:34 PM,-9.4,-16.6,71,30.32,10.0,WNW,9.2,-,N/A,,Clear,290,2013-02-01 02:34:00
8:53 PM,-9.4,-16.6,71,30.33,10.0,WNW,9.2,-,N/A,,Clear,290,2013-02-01 02:53:00
9:14 PM,-9.4,-18.4,65,30.33,10.0,West,9.2,-,N/A,,Clear,280,2013-02-01 03:14:00
9:34 PM,-9.4,-18.4,65,30.33,10.0,West,9.2,-,N/A,,Clear,280,2013-02-01 03:34:00
9:53 PM,-9.4,-18.4,65,30.33,10.0,WNW,9.2,-,N/A,,Clear,290,2013-02-01 03:53:00
10:14 PM,-9.4,-18.4,65,30.33,10.0,West,9.2,-,N/A,,Clear,280,2013-02-01 04:14:00
10:34 PM,-9.4,-18.4,65,30.33,10.0,West,8.1,-,N/A,,Clear,280,2013-02-01 04:34:00
10:54 PM,-9.4,-18.4,65,30.33,10.0,WNW,9.2,-,N/A,,Clear,290,2013-02-01 04:54:00
11:14 PM,-11.2,-18.4,70,30.32,10.0,WNW,6.9,-,N/A,,Clear,290,2013-02-01 05:14:00
11:34 PM,-11.2,-18.4,70,30.32,10.0,West,5.8,-,N/A,,Clear,280,2013-02-01 05:34:00
11:53 PM,-13.0,-20.2,70,30.32,10.0,West,5.8,-,N/A,,Clear,270,2013-02-01 05:53:00